Location: Oberkirch
(48.5323°N, 8.0787°E)
Time: 19:45:24
(UTC+00:00)

S-56A Canister/Altair - Pass Details

Date: 23 February 2026
Orbit: 633 x 2484 km, 38.9° (Epoch: 11 March)

Event Time Altitude Azimuth Distance (km) Brightness Sun altitude
Exits shadow 02:08:52 13° 147° (SSE) 3,753 10.9 -40.5°
Drops below altitude 10° 02:09:49 10° 144° (SE) 4,028 11.1 -40.4°
Sets 02:14:17 0° 135° (SE) 5,338 11.9 -39.8°
